Location: Club d'Astronomie Sirius du Saguenay
(48.5448°N, 71.1471°W)
Time: 13:58:11
(UTC-05:00)

Amateur Radio Satellites - All Passes

Search period start: 13 December 2017 13:28
Search period end: 14 December 2017 13:28
Location: Club d'Astronomie Sirius du Saguenay, 48.5448°N, 71.1471°W

Satellite Date Start Highest point End Downlink Frequencies (MHz)
Time Altitude Azimuth
Gurwin Techsat 1B 13 Dec 13:33:59 13:38:40 31° 265° (W) 13:43:23 435.225
RS-15 13 Dec 13:38:22 13:49:16 39° 107° (ESE) 14:00:03 29.354- 29.394
AO-91 13 Dec 13:45:07 13:48:13 17° 269° (W) 13:51:10 145.960
AO-7 13 Dec 13:50:22 13:58:39 78° 67° (ENE) 14:07:01 .
UKube-1 13 Dec 13:52:28 13:56:45 58° 101° (ESE) 14:00:59 .
YUBILEINY 13 Dec 13:53:29 14:02:23 82° 79° (E) 14:11:12 435.215
SPROUT 13 Dec 13:58:33 14:00:43 14° 302° (WNW) 14:02:53 437.525
DX 1 13 Dec 14:05:03 14:09:24 68° 287° (WNW) 14:13:42 434.975-435.025
ITAMSAT 1 13 Dec 14:12:04 14:17:12 63° 71° (ENE) 14:22:22 435.822/435.867
DOVE 4 13 Dec 14:18:01 14:21:30 18° 59° (ENE) 14:24:54 437.250
50 SAT 13 Dec 14:21:30 14:24:15 27° 291° (WNW) 14:26:58 437.505
nSIGHT-1 13 Dec 14:26:23 14:29:32 47° 355° (N) 14:32:40 .
CUBESAT XI-V 13 Dec 14:32:56 14:33:44 10° 85° (E) 14:34:33 437.345
MOZHAYETS 4 13 Dec 14:47:37 14:52:07 51° 99° (E) 14:56:38
M-CUBED/EXP-1 PRIME 13 Dec 14:49:43 14:53:32 30° 260° (W) 14:57:33 437.505
BEESAT 13 Dec 14:55:59 15:00:31 42° 98° (E) 15:05:02 436.000
NO-84 13 Dec 15:02:37 15:03:11 10° 234° (SW) 15:03:45 435.350 FM
ISS 13 Dec 15:03:11 15:06:23 46° 0° (N) 15:09:36 437.550
SO-50 13 Dec 15:08:48 15:12:43 31° 117° (ESE) 15:16:42 436.795
ITUPSAT 1 13 Dec 15:23:13 15:28:01 73° 104° (ESE) 15:32:47 437.325
XW-2B 13 Dec 15:26:35 15:27:19 10° 58° (ENE) 15:28:03 145.730 - 145.750
UKube-1 13 Dec 15:29:24 15:32:21 18° 300° (WNW) 15:35:18 .
CUTE-I 13 Dec 15:30:02 15:33:30 18° 55° (NE) 15:36:57 437.470
XW-2F 13 Dec 15:38:40 15:40:31 13° 60° (ENE) 15:42:22 145.980 - 146.000
AO-7 13 Dec 15:45:28 15:52:15 27° 268° (W) 15:59:07 .
RS-15 13 Dec 15:48:31 16:00:55 78° 312° (NW) 16:13:07 29.354- 29.394
YUBILEINY 13 Dec 15:51:26 15:58:10 25° 282° (WNW) 16:04:53 435.215
XW-2C 13 Dec 15:51:38 15:54:20 19° 64° (ENE) 15:57:04 145.795 - 145.815
ITAMSAT 1 13 Dec 15:53:16 15:57:06 20° 269° (W) 16:00:58 435.822/435.867
DOVE 4 13 Dec 15:53:19 15:58:36 80° 257° (WSW) 16:03:45 437.250
HO-68 13 Dec 15:56:52 16:02:12 23° 51° (NE) 16:07:32 435.675
O/OREOS (USA 219) 13 Dec 16:01:34 16:03:50 13° 41° (NE) 16:06:05 437.305
nSIGHT-1 13 Dec 16:02:49 16:06:01 64° 15° (NNE) 16:09:13 .
CUBESAT XI-V 13 Dec 16:07:08 16:11:53 80° 103° (ESE) 16:16:35 437.345
LilacSat-2 13 Dec 16:25:13 16:28:50 44° 71° (ENE) 16:32:32 437.200
MOZHAYETS 4 13 Dec 16:25:25 16:28:58 22° 298° (WNW) 16:32:30
BEESAT 13 Dec 16:34:06 16:38:07 28° 297° (WNW) 16:42:08 436.000
ISS 13 Dec 16:39:47 16:43:06 82° 20° (NNE) 16:46:24 437.550
XW-2D 13 Dec 16:41:15 16:45:01 64° 73° (ENE) 16:48:48 145.860 - 145.880
KKS-1 13 Dec 16:47:09 16:51:21 41° 98° (E) 16:55:32 437.445
SO-50 13 Dec 16:48:47 16:53:03 43° 317° (NW) 16:57:25 436.795
NUDT-PHONESAT 13 Dec 16:51:41 16:55:18 55° 73° (ENE) 16:58:57 437.300
KAITUO 1B 13 Dec 16:52:58 16:56:40 61° 73° (ENE) 17:00:24 145.475/437.950
XW-2B 13 Dec 16:57:03 17:00:50 88° 262° (W) 17:04:41 145.730 - 145.750
ITUPSAT 1 13 Dec 17:02:10 17:05:18 18° 302° (WNW) 17:08:26 437.325
CUTE-I 13 Dec 17:07:29 17:12:52 87° 256° (WSW) 17:18:16 437.470
SEEDS 13 Dec 17:08:20 17:11:39 23° 64° (ENE) 17:15:00 437.485
XW-2F 13 Dec 17:10:23 17:14:07 65° 259° (W) 17:17:55 145.980 - 146.000
XW-2C 13 Dec 17:24:38 17:28:14 41° 262° (W) 17:31:53 145.795 - 145.815
CUTE 1.7 + AOD 2 13 Dec 17:27:45 17:31:54 53° 72° (ENE) 17:36:05 437.475
AAUSAT CUBESAT 2 13 Dec 17:31:40 17:34:34 19° 62° (ENE) 17:37:29 437.432
STARS 13 Dec 17:33:48 17:38:04 50° 100° (E) 17:42:18 437.465
AO-73 13 Dec 17:34:22 17:36:02 12° 58° (ENE) 17:37:42 145.935
DOVE 4 13 Dec 17:34:52 17:37:00 12° 275° (W) 17:39:07 437.250
PCSat 13 Dec 17:37:39 17:41:17 19° 106° (ESE) 17:44:56 145.827
nSIGHT-1 13 Dec 17:39:09 17:42:07 33° 214° (SW) 17:45:02 .
O/OREOS (USA 219) 13 Dec 17:39:35 17:44:07 73° 63° (ENE) 17:48:35 437.305
HO-68 13 Dec 17:41:49 17:49:02 87° 72° (ENE) 17:56:17 435.675
CUBESAT XI-V 13 Dec 17:45:49 17:48:39 16° 302° (WNW) 17:51:28 437.345
XW-2A 13 Dec 17:47:11 17:49:45 21° 66° (ENE) 17:52:20 145.665 - 145.685
LilacSat-2 13 Dec 18:00:48 18:03:21 17° 269° (W) 18:05:56 437.200
CUBEBUG 2 13 Dec 18:02:38 18:06:50 75° 74° (ENE) 18:10:59 437.445
RS-15 13 Dec 18:04:11 18:15:35 41° 342° (NNW) 18:26:40 29.354- 29.394
UWE-3 13 Dec 18:05:08 18:09:06 45° 71° (ENE) 18:13:05 435.000/436.395/437.385
ISS 13 Dec 18:16:39 18:19:19 23° 219° (SW) 18:21:57 437.550
XW-2D 13 Dec 18:18:07 18:19:36 12° 272° (W) 18:21:06 145.860 - 145.880
KKS-1 13 Dec 18:24:06 18:27:43 25° 297° (WNW) 18:31:19 437.445
NUDT-PHONESAT 13 Dec 18:27:43 18:29:29 13° 271° (W) 18:31:16 437.300
KAITUO 1B 13 Dec 18:29:27 18:31:02 12° 271° (W) 18:32:38 145.475/437.950
SO-50 13 Dec 18:32:09 18:34:41 15° 340° (NNW) 18:37:14 436.795
ZACube-1 13 Dec 18:32:57 18:36:55 47° 71° (ENE) 18:40:55 437.345
SEEDS 13 Dec 18:43:06 18:47:06 41° 262° (W) 18:51:09 437.485
CUTE-I 13 Dec 18:50:58 18:53:41 14° 273° (W) 18:56:24 437.470
Oscar 11 13 Dec 18:54:31 18:58:41 49° 70° (ENE) 19:02:53 .
CUTE 1.7 + AOD 2 13 Dec 19:05:12 19:08:04 17° 270° (W) 19:10:56 437.475
AAUSAT CUBESAT 2 13 Dec 19:05:34 19:09:39 52° 260° (W) 19:13:46 437.432
AO-73 13 Dec 19:07:30 19:11:37 85° 255° (WSW) 19:15:48 145.935
STARS 13 Dec 19:10:50 19:14:04 21° 299° (WNW) 19:17:19 437.465
Max Valier Satellite 13 Dec 19:12:15 19:13:07 11° 59° (ENE) 19:13:58 145.860
STRAND 1 13 Dec 19:14:25 19:19:31 63° 102° (ESE) 19:24:33 437.568
PCSat 13 Dec 19:18:37 19:24:02 80° 305° (NW) 19:29:31 145.827
XW-2A 13 Dec 19:19:22 19:22:18 28° 264° (W) 19:25:16 145.665 - 145.685
O/OREOS (USA 219) 13 Dec 19:20:30 19:22:55 14° 261° (W) 19:25:18 437.305
FO-29 13 Dec 19:31:01 19:37:29 36° 92° (E) 19:43:14 435.910
HO-68 13 Dec 19:32:31 19:37:40 21° 271° (W) 19:42:52 435.675
EO-88 13 Dec 19:41:33 19:43:45 16° 62° (ENE) 19:45:59 145.990 - 145.960
CUBEBUG 2 13 Dec 19:42:21 19:43:58 12° 272° (W) 19:45:34 437.445
UWE-3 13 Dec 19:42:50 19:45:49 19° 268° (W) 19:48:48 435.000/436.395/437.385
ZACube-1 13 Dec 20:10:37 20:13:29 18° 269° (W) 20:16:22 437.345
SO-50 13 Dec 20:15:50 20:17:06 11° 6° (N) 20:18:24 436.795
DELFI C3 13 Dec 20:18:11 20:22:10 78° 75° (ENE) 20:26:10 145.870
RS-15 13 Dec 20:20:42 20:31:55 40° 16° (NNE) 20:42:37 29.354- 29.394
BEESAT 3 13 Dec 20:27:21 20:31:20 72° 126° (SE) 20:35:20 437.485
Oscar 11 13 Dec 20:31:59 20:35:06 19° 269° (W) 20:38:14 .
Max Valier Satellite 13 Dec 20:42:41 20:46:20 80° 257° (WSW) 20:50:02 145.860
ESTCUBE 1 13 Dec 20:52:33 20:55:16 16° 58° (ENE) 20:57:58 437.505/2401.250
STRAND 1 13 Dec 20:54:26 20:58:15 22° 301° (WNW) 21:02:04 437.568
PCSat 13 Dec 21:04:09 21:08:17 22° 327° (NNW) 21:12:26 145.827
BEESAT 2 13 Dec 21:04:36 21:08:30 51° 123° (ESE) 21:12:28 435.950
TIGRISAT 13 Dec 21:05:49 21:09:42 32° 96° (E) 21:13:37 435.000
UNISAT 6 13 Dec 21:08:41 21:12:44 37° 97° (E) 21:16:48 437.425
EO-88 13 Dec 21:13:30 21:17:02 49° 261° (W) 21:20:36 145.990 - 145.960
FO-29 13 Dec 21:15:52 21:22:47 50° 295° (WNW) 21:28:54 435.910
SPROUT 13 Dec 21:44:42 21:46:33 13° 57° (ENE) 21:48:24 437.525
LO-87 13 Dec 21:47:31 21:50:58 53° 73° (ENE) 21:54:27 145.935 - 145.965
SO-50 13 Dec 21:55:45 21:59:18 21° 30° (NNE) 22:02:53 436.795
DELFI C3 13 Dec 21:56:25 21:57:25 11° 273° (W) 21:58:26 145.870
AO-85 13 Dec 22:01:32 22:05:20 51° 122° (ESE) 22:09:24 145.980
BEESAT 3 13 Dec 22:06:12 22:09:17 21° 326° (NW) 22:12:22 437.485
PRISM 13 Dec 22:07:53 22:11:51 44° 99° (E) 22:15:45 437.425
AIST 2D 13 Dec 22:19:43 22:22:35 22° 94° (E) 22:25:26 435.315
ESTCUBE 1 13 Dec 22:26:59 22:31:29 76° 256° (WSW) 22:36:03 437.505/2401.250
VELOX 1 13 Dec 22:29:53 22:33:22 23° 62° (ENE) 22:36:51 145.980
RS-15 13 Dec 22:34:36 22:46:38 75° 47° (NE) 22:57:59 29.354- 29.394
TIGRISAT 13 Dec 22:42:35 22:46:21 30° 293° (WNW) 22:50:09 435.000
BEESAT 2 13 Dec 22:43:02 22:46:28 26° 323° (NW) 22:49:55 435.950
UNISAT 6 13 Dec 22:45:42 22:49:18 26° 295° (WNW) 22:52:57 437.425
QB50P2 13 Dec 22:48:31 22:51:34 19° 92° (E) 22:54:37 145.880/145.840
PCSat 13 Dec 22:52:25 22:53:52 11° 353° (N) 22:55:19 145.827
DUCHIFAT 1 13 Dec 22:55:41 22:58:17 16° 90° (E) 23:00:52 145.980
FO-29 13 Dec 23:02:56 23:06:03 13° 318° (NW) 23:09:03 435.910
SPROUT 13 Dec 23:17:33 23:21:48 87° 257° (WSW) 23:26:04 437.525
UKube-1 13 Dec 23:17:40 23:19:06 11° 55° (NE) 23:20:32 .
50 SAT 13 Dec 23:20:40 23:21:51 12° 62° (ENE) 23:23:03 437.505
NANOSAT C BR1 13 Dec 23:20:40 23:24:26 31° 96° (E) 23:28:12 145.865
LO-87 13 Dec 23:23:12 23:24:42 12° 271° (W) 23:26:12 145.935 - 145.965
DX 1 13 Dec 23:28:59 23:32:18 22° 62° (ENE) 23:35:39 434.975-435.025
EO-79 13 Dec 23:35:06 23:39:12 50° 100° (E) 23:43:18 145.935-145.965
SO-50 13 Dec 23:35:45 23:40:25 84° 51° (NE) 23:45:09 436.795
BUGSAT 1 13 Dec 23:41:17 23:42:35 11° 88° (E) 23:43:55 437.445
AO-85 13 Dec 23:42:33 23:46:00 26° 324° (NW) 23:49:39 145.980
PRISM 13 Dec 23:43:44 23:46:50 21° 298° (WNW) 23:49:56 437.425
FALCONSAT 3 13 Dec 23:48:35 23:49:09 10° 174° (S) 23:49:42 435.103
AIST 2D 13 Dec 23:52:39 23:55:45 28° 291° (WNW) 23:58:51 435.315
POLYITAN 1 13 Dec 23:57:44 00:01:59 86° 101° (E) 00:06:14 437.675
VELOX 1 14 Dec 00:05:14 00:09:32 47° 261° (W) 00:13:51 145.980
Gurwin Techsat 1B 14 Dec 00:07:53 00:09:48 12° 85° (E) 00:11:42 435.225
MOZHAYETS 4 14 Dec 00:19:27 00:21:00 12° 55° (NE) 00:22:34
QB50P2 14 Dec 00:23:32 00:27:36 47° 290° (WNW) 00:31:39 145.880/145.840
DUCHIFAT 1 14 Dec 00:30:11 00:34:18 57° 288° (WNW) 00:38:24 145.980
BEESAT 14 Dec 00:31:38 00:33:32 12° 54° (NE) 00:35:26 436.000
PCSat 14 Dec 00:36:55 00:39:48 14° 20° (NNE) 00:42:40 145.827
RS-15 14 Dec 00:47:48 00:58:13 40° 252° (WSW) 01:08:12 29.354- 29.394
UKube-1 14 Dec 00:50:04 00:54:23 80° 72° (ENE) 00:58:44 .
50 SAT 14 Dec 00:50:18 00:53:23 50° 259° (W) 00:56:31 437.505
NANOSAT C BR1 14 Dec 00:56:28 01:00:04 28° 294° (WNW) 01:03:42 145.865
ITUPSAT 1 14 Dec 00:57:31 01:00:54 20° 59° (ENE) 01:04:17 437.325
DX 1 14 Dec 01:03:57 01:08:11 48° 260° (W) 01:12:28 434.975-435.025
YUBILEINY 14 Dec 01:06:01 01:11:50 20° 74° (ENE) 01:17:39 435.215
Oscar 19 14 Dec 01:10:48 01:15:55 54° 100° (E) 01:21:01 437.125/150
EO-79 14 Dec 01:11:36 01:14:38 20° 298° (WNW) 01:17:39 145.935-145.965
BUGSAT 1 14 Dec 01:14:25 01:18:28 76° 285° (WNW) 01:22:30 437.445
SO-50 14 Dec 01:17:32 01:20:18 16° 249° (WSW) 01:23:04 436.795
AO-85 14 Dec 01:26:50 01:27:56 11° 349° (N) 01:29:04 145.980
AO-91 14 Dec 01:29:28 01:33:03 83° 104° (ESE) 01:36:26 145.960
POLYITAN 1 14 Dec 01:35:17 01:37:08 13° 303° (WNW) 01:39:01 437.675
CUBESAT XI-V 14 Dec 01:38:31 01:41:35 18° 59° (ENE) 01:44:40 437.345
Gurwin Techsat 1B 14 Dec 01:45:17 01:50:38 78° 104° (ESE) 01:55:57 435.225
AO-7 14 Dec 01:48:57 01:54:36 19° 87° (E) 02:00:13 .
MOZHAYETS 4 14 Dec 01:52:49 01:57:21 76° 74° (ENE) 02:01:57
BEESAT 14 Dec 02:05:45 02:10:29 75° 73° (ENE) 02:15:15 436.000
PCSat 14 Dec 02:19:39 02:24:44 39° 44° (NE) 02:29:49 145.827
ITAMSAT 1 14 Dec 02:22:14 02:25:23 16° 89° (E) 02:28:31 435.822/435.867
M-CUBED/EXP-1 PRIME 14 Dec 02:24:54 02:27:34 15° 93° (E) 02:30:10 437.505
UKube-1 14 Dec 02:29:14 02:30:57 12° 272° (W) 02:32:41 .
ITUPSAT 1 14 Dec 02:33:34 02:38:17 64° 258° (WSW) 02:43:02 437.325
Oscar 19 14 Dec 02:50:42 02:54:56 26° 299° (WNW) 02:59:08 437.125/150
YUBILEINY 14 Dec 02:58:24 03:07:14 82° 96° (E) 03:16:07 435.215
STARS 14 Dec 03:01:22 03:02:23 11° 54° (NE) 03:03:25 437.465
BEESAT 3 14 Dec 03:03:25 03:06:42 24° 37° (NE) 03:09:55 437.485
AO-85 14 Dec 03:08:48 03:10:23 12° 14° (NNE) 03:11:59 145.980
CUBESAT XI-V 14 Dec 03:13:47 03:18:26 70° 258° (WSW) 03:23:09 437.345
Gurwin Techsat 1B 14 Dec 03:26:18 03:30:00 19° 303° (WNW) 03:33:41 435.225
MOZHAYETS 4 14 Dec 03:32:44 03:35:04 14° 272° (W) 03:37:25
AO-7 14 Dec 03:40:13 03:48:40 80° 108° (ESE) 03:57:03 .
BEESAT 2 14 Dec 03:41:23 03:44:28 20° 33° (NNE) 03:47:31 435.950
BEESAT 14 Dec 03:46:06 03:48:49 15° 271° (W) 03:51:31 436.000
KKS-1 14 Dec 03:48:23 03:52:47 61° 71° (ENE) 03:57:12 437.445
DOVE 4 14 Dec 03:49:33 03:52:57 20° 90° (E) 03:56:13 437.250
M-CUBED/EXP-1 PRIME 14 Dec 03:57:52 04:02:27 72° 293° (WNW) 04:06:47 437.505
ITAMSAT 1 14 Dec 04:00:16 04:05:29 79° 287° (WNW) 04:10:38 435.822/435.867
PCSat 14 Dec 04:03:06 04:08:13 43° 245° (WSW) 04:13:18 145.827
STARS 14 Dec 04:33:34 04:37:56 73° 73° (ENE) 04:42:20 437.465
BEESAT 3 14 Dec 04:40:37 04:44:30 55° 237° (WSW) 04:48:17 437.485
XW-2F 14 Dec 04:41:03 04:41:34 10° 87° (E) 04:42:05 145.980 - 146.000
AO-85 14 Dec 04:48:13 04:52:14 28° 37° (NE) 04:56:31 145.980
XW-2C 14 Dec 04:53:57 04:56:22 16° 90° (E) 04:58:46 145.795 - 145.815
STRAND 1 14 Dec 04:56:37 05:00:27 22° 59° (ENE) 05:04:17 437.568
YUBILEINY 14 Dec 04:57:54 05:05:09 28° 300° (WNW) 05:12:28 435.215
HO-68 14 Dec 05:07:51 05:10:58 13° 83° (E) 05:14:04 435.675
BEESAT 2 14 Dec 05:18:36 05:22:39 77° 234° (SW) 05:26:38 435.950
CUTE-I 14 Dec 05:21:02 05:25:34 28° 94° (E) 05:30:05 437.470
DOVE 4 14 Dec 05:26:31 05:30:58 48° 290° (WNW) 05:35:09 437.250
KKS-1 14 Dec 05:26:53 05:29:45 17° 270° (W) 05:32:36 437.445
LilacSat-2 14 Dec 05:28:31 05:32:12 39° 98° (E) 05:35:52 437.200
AO-7 14 Dec 05:33:41 05:40:42 31° 310° (NW) 05:47:42 .
M-CUBED/EXP-1 PRIME 14 Dec 05:33:58 05:35:58 13° 312° (NW) 05:37:56 437.505
ITAMSAT 1 14 Dec 05:41:24 05:44:08 15° 307° (NW) 05:46:51 435.822/435.867
XW-2D 14 Dec 05:43:46 05:47:35 56° 100° (E) 05:51:21 145.860 - 145.880
FO-29 14 Dec 05:45:57 05:52:32 31° 57° (ENE) 05:59:04 435.910
CUBEBUG 2 14 Dec 05:51:05 05:52:36 12° 88° (E) 05:54:09 437.445
NUDT-PHONESAT 14 Dec 05:51:25 05:55:03 44° 99° (E) 05:58:39 437.300
KAITUO 1B 14 Dec 05:53:52 05:57:36 51° 100° (E) 06:01:17 145.475/437.950
XW-2B 14 Dec 05:59:35 06:03:28 81° 103° (ESE) 06:07:19 145.730 - 145.750
XW-2F 14 Dec 06:12:19 06:16:10 77° 285° (WNW) 06:20:00 145.980 - 146.000
STARS 14 Dec 06:12:32 06:14:47 14° 271° (W) 06:17:01 437.465
NO-84 14 Dec 06:17:48 06:20:11 21° 133° (SE) 06:22:44 435.350 FM
SEEDS 14 Dec 06:23:01 06:26:33 25° 93° (E) 06:30:03 437.485
XW-2C 14 Dec 06:27:04 06:30:49 48° 288° (WNW) 06:34:32 145.795 - 145.815
AO-85 14 Dec 06:28:19 06:33:00 62° 235° (SW) 06:38:00 145.980
STRAND 1 14 Dec 06:34:07 06:39:12 64° 258° (WSW) 06:44:18 437.568
XW-2A 14 Dec 06:37:42 06:39:22 13° 90° (E) 06:41:03 145.665 - 145.685
CUTE 1.7 + AOD 2 14 Dec 06:44:13 06:48:30 64° 101° (E) 06:52:46 437.475
AAUSAT CUBESAT 2 14 Dec 06:44:19 06:47:18 19° 91° (E) 06:50:15 437.432
AO-73 14 Dec 06:52:24 06:54:51 15° 89° (E) 06:57:18 145.935
HO-68 14 Dec 06:52:56 07:00:06 66° 104° (ESE) 07:07:12 435.675
CUTE-I 14 Dec 07:00:43 07:05:51 48° 292° (WNW) 07:10:55 437.470
LilacSat-2 14 Dec 07:03:19 07:06:14 21° 296° (WNW) 07:09:09 437.200
XW-2D 14 Dec 07:19:02 07:21:20 15° 298° (WNW) 07:23:38 145.860 - 145.880
CUBEBUG 2 14 Dec 07:25:31 07:29:45 80° 286° (WNW) 07:34:06 437.445
NUDT-PHONESAT 14 Dec 07:26:02 07:28:34 17° 297° (WNW) 07:31:06 437.300
UWE-3 14 Dec 07:26:26 07:30:42 62° 101° (ESE) 07:35:02 435.000/436.395/437.385
KAITUO 1B 14 Dec 07:28:48 07:31:11 16° 298° (WNW) 07:33:35 145.475/437.950
FO-29 14 Dec 07:29:06 07:36:54 76° 257° (WSW) 07:44:46 435.910
AO-7 14 Dec 07:29:08 07:30:49 11° 335° (NNW) 07:32:31 .
XW-2B 14 Dec 07:35:44 07:37:02 11° 301° (WNW) 07:38:20 145.730 - 145.750
ZACube-1 14 Dec 07:52:49 07:57:08 63° 101° (ESE) 08:01:31 437.345
NO-84 14 Dec 07:53:59 07:57:07 62° 334° (NNW) 08:00:32 435.350 FM
O/OREOS (USA 219) 14 Dec 07:55:36 07:59:53 40° 108° (ESE) 08:04:10 437.305
SEEDS 14 Dec 07:58:24 08:02:19 36° 292° (WNW) 08:06:13 437.485
TIGRISAT 14 Dec 08:07:57 08:12:00 43° 70° (ENE) 08:16:02 435.000
XW-2A 14 Dec 08:09:00 08:12:20 47° 288° (WNW) 08:15:38 145.665 - 145.685
UNISAT 6 14 Dec 08:10:57 08:15:06 50° 71° (ENE) 08:19:14 437.425
Oscar 11 14 Dec 08:13:35 08:17:56 61° 101° (E) 08:22:14 .
AAUSAT CUBESAT 2 14 Dec 08:18:58 08:23:00 47° 289° (WNW) 08:26:59 437.432
CUTE 1.7 + AOD 2 14 Dec 08:21:10 08:23:51 17° 300° (WNW) 08:26:33 437.475
AO-73 14 Dec 08:27:12 08:31:30 67° 287° (WNW) 08:35:53 145.935
EO-88 14 Dec 08:39:57 08:41:03 11° 88° (E) 08:42:09 145.990 - 145.960
HO-68 14 Dec 08:41:16 08:47:22 32° 304° (NW) 08:53:28 435.675
AIST 2D 14 Dec 08:57:57 09:00:08 16° 63° (ENE) 09:02:21 435.315
PRISM 14 Dec 09:00:08 09:04:12 52° 71° (ENE) 09:08:15 437.425
UWE-3 14 Dec 09:03:58 09:06:44 17° 299° (WNW) 09:09:32 435.000/436.395/437.385
CUBEBUG 2 14 Dec 09:04:40 09:05:41 11° 303° (WNW) 09:06:43 437.445
FO-29 14 Dec 09:18:01 09:23:05 18° 277° (W) 09:28:11 435.910
POLYITAN 1 14 Dec 09:20:28 09:22:29 13° 58° (ENE) 09:24:30 437.675
DELFI C3 14 Dec 09:25:38 09:29:37 76° 103° (ESE) 09:33:32 145.870
ZACube-1 14 Dec 09:30:11 09:32:59 17° 299° (WNW) 09:35:49 437.345
NO-84 14 Dec 09:31:52 09:34:51 28° 355° (N) 09:38:02 435.350 FM
O/OREOS (USA 219) 14 Dec 09:35:23 09:39:24 29° 308° (NW) 09:43:25 437.305
Max Valier Satellite 14 Dec 09:42:10 09:45:55 83° 103° (ESE) 09:49:39 145.860
QB50P2 14 Dec 09:44:30 09:47:52 24° 64° (ENE) 09:51:14 145.880/145.840
TIGRISAT 14 Dec 09:45:36 09:48:53 21° 268° (W) 09:52:10 435.000
UNISAT 6 14 Dec 09:49:06 09:52:06 18° 269° (W) 09:55:06 437.425
Oscar 11 14 Dec 09:50:43 09:53:37 18° 299° (WNW) 09:56:32 .
DUCHIFAT 1 14 Dec 09:50:51 09:53:52 20° 62° (ENE) 09:56:55 145.980
EO-88 14 Dec 10:11:27 10:15:07 65° 286° (WNW) 10:18:44 145.990 - 145.960
NANOSAT C BR1 14 Dec 10:15:58 10:19:50 38° 68° (ENE) 10:23:43 145.865
ESTCUBE 1 14 Dec 10:16:23 10:19:30 18° 90° (E) 10:22:36 437.505/2401.250
AIST 2D 14 Dec 10:29:37 10:32:58 43° 261° (W) 10:36:23 435.315
EO-79 14 Dec 10:30:40 10:34:47 60° 73° (ENE) 10:38:56 145.935-145.965
BUGSAT 1 14 Dec 10:34:12 10:36:26 15° 60° (ENE) 10:38:41 437.445
PRISM 14 Dec 10:36:58 10:39:45 17° 269° (W) 10:42:33 437.425
LO-87 14 Dec 10:43:36 10:46:56 38° 98° (E) 10:50:15 145.935 - 145.965
POLYITAN 1 14 Dec 10:53:29 10:57:40 80° 257° (WSW) 11:01:53 437.675
Oscar 19 14 Dec 10:54:12 10:57:47 20° 57° (ENE) 11:01:25 437.125/150
AO-91 14 Dec 10:54:59 10:57:43 16° 61° (ENE) 11:00:18 145.960
ISS 14 Dec 10:59:29 11:01:25 15° 137° (SE) 11:03:22 437.550
SPROUT 14 Dec 11:00:59 11:02:43 12° 88° (E) 11:04:27 437.525
DELFI C3 14 Dec 11:02:04 11:03:47 13° 301° (WNW) 11:05:31 145.870
AO-7 14 Dec 11:04:57 11:08:36 14° 31° (NNE) 11:12:16 .
YUBILEINY 14 Dec 11:09:07 11:13:05 13° 45° (NE) 11:17:02 435.215
NO-84 14 Dec 11:09:26 11:12:45 36° 16° (NNE) 11:16:19 435.350 FM
Max Valier Satellite 14 Dec 11:18:17 11:19:08 11° 301° (WNW) 11:19:59 145.860
QB50P2 14 Dec 11:19:32 11:23:28 39° 262° (W) 11:27:25 145.880/145.840
DUCHIFAT 1 14 Dec 11:25:13 11:29:14 47° 261° (W) 11:33:17 145.980
Gurwin Techsat 1B 14 Dec 11:31:25 11:35:58 29° 62° (ENE) 11:40:30 435.225
VELOX 1 14 Dec 11:51:31 11:55:08 24° 94° (E) 11:58:44 145.980
ESTCUBE 1 14 Dec 11:52:12 11:56:41 58° 288° (WNW) 12:01:08 437.505/2401.250
NANOSAT C BR1 14 Dec 11:52:18 11:55:39 23° 266° (W) 11:59:02 145.865
nSIGHT-1 14 Dec 11:53:51 11:56:56 46° 150° (SSE) 12:00:03 .
BUGSAT 1 14 Dec 12:07:18 12:11:19 66° 258° (WSW) 12:15:20 437.445
EO-79 14 Dec 12:08:29 12:10:56 15° 270° (W) 12:13:24 145.935-145.965
LO-87 14 Dec 12:17:39 12:20:04 18° 296° (WNW) 12:22:30 145.935 - 145.965
AO-91 14 Dec 12:28:53 12:33:45 77° 257° (WSW) 12:38:10 145.960
Oscar 19 14 Dec 12:31:26 12:36:34 74° 257° (WSW) 12:41:46 437.125/150
ISS 14 Dec 12:34:10 12:37:27 72° 155° (SSE) 12:40:44 437.550
SPROUT 14 Dec 12:34:53 12:39:09 77° 284° (WNW) 12:43:22 437.525
NO-84 14 Dec 12:46:32 12:50:14 69° 215° (SW) 12:54:12 435.350 FM
DX 1 14 Dec 12:48:37 12:51:59 21° 93° (E) 12:55:19 434.975-435.025
AO-7 14 Dec 12:51:37 12:59:10 41° 55° (NE) 13:06:47 .
RS-15 14 Dec 13:03:44 13:13:43 31° 103° (ESE) 13:23:35 29.354- 29.394
YUBILEINY 14 Dec 13:04:00 13:12:35 51° 71° (ENE) 13:21:04 435.215
Gurwin Techsat 1B 14 Dec 13:10:34 13:15:42 47° 261° (W) 13:20:51 435.225
M-CUBED/EXP-1 PRIME 14 Dec 13:12:20 13:16:19 34° 60° (ENE) 13:20:29 437.505
